Hourly Data Report for November 24, 2017

TORONTO CITY
ONTARIO

43°40'00.000" N
79°24'00.000" W
112.50 m
6158355
71508
XTO

Download Data

Hourly Data (November 2017)
Hourly Data Report for November 24, 2017
TIME
LST
Temp Definition
°C
Dew Point Definition
°C
Rel Hum Definition
%
Precip. Amount Definition
mm

Wind Dir Definition
10's deg

Wind Spd Definition
km/h
Visibility Definition
km
Stn Press Definition
kPa
Hmdx Definition


Wind Chill Definition


Weather Definition


00:00 3.5 -3.8 59 0.0 LegendMM LegendMM   100.01     LegendNANA
01:00 3.6 -3.9 58 0.0 LegendMM LegendMM   99.96     LegendNANA
02:00 3.5 -3.9 58 0.0 LegendMM LegendMM   99.96     LegendNANA
03:00 2.8 -4.1 60 0.0 LegendMM LegendMM   99.93     LegendNANA
04:00 2.4 -3.5 65 0.0 LegendMM LegendMM   99.91     LegendNANA
05:00 2.9 -3.2 64 0.0 LegendMM LegendMM   99.86     LegendNANA
06:00 2.6 -2.3 70 0.0 LegendMM LegendMM   99.81     LegendNANA
07:00 3.4 -2.0 68 0.0 LegendMM LegendMM   99.75     LegendNANA
08:00 3.4 -1.4 71 0.0 LegendMM LegendMM   99.74     LegendNANA
09:00 4.7 -1.9 62 0.0 LegendMM LegendMM   99.70     LegendNANA
10:00 5.7 1.3 73 0.0 LegendMM LegendMM   99.65     LegendNANA
11:00 7.1 1.4 67 0.0 LegendMM LegendMM   99.61     LegendNANA
12:00 8.1 0.1 57 0.0 LegendMM LegendMM   99.46     LegendNANA
13:00 9.1 0.1 53 0.0 LegendMM LegendMM   99.34     LegendNANA
14:00 9.3 0.6 55 0.0 LegendMM LegendMM   99.21     LegendNANA
15:00 8.3 1.1 60 0.0 LegendMM LegendMM   99.16     LegendNANA
16:00 8.2 0.7 59 0.0 LegendMM LegendMM   99.11     LegendNANA
17:00 8.4 -0.2 55 0.0 LegendMM LegendMM   99.09     LegendNANA
18:00 8.4 -1.1 51 0.0 LegendMM LegendMM   99.07     LegendNANA
19:00 8.7 -0.6 52 0.0 LegendMM LegendMM   99.05     LegendNANA
20:00 8.6 -0.2 54 0.0 LegendMM LegendMM   98.99     LegendNANA
21:00 8.8 -0.2 53 0.0 LegendMM LegendMM   98.93     LegendNANA
22:00 9.0 -0.5 51 0.0 LegendMM LegendMM   98.85     LegendNANA
23:00 8.9 -0.8 50 0.0 LegendMM LegendMM   98.77     LegendNANA

Notes on Data Quality.

Legend

  • E = Estimated
  • M = Missing
  • NA = Not Available*
  • [empty] = Indicates an unobserved value
Date modified: